Location: *
(51.5000°N, 0.1100°W)
Time: 06:33:35
(UTC+00:00)

Cosmos 1025 Rocket - Pass Details

Date: 10 August 2024
Orbit: 590 x 612 km, 82.5° (Epoch: 07 September)

Event Time Altitude Azimuth Distance (km) Brightness Sun altitude
Rises 02:27:29 0° 5° (N) 2,889 7.6 -16.3°
Maximum altitude 02:32:35 10° 56° (ENE) 1,984 6.8 -15.8°
Drops below altitude 10° 02:33:03 10° 63° (ENE) 1,993 6.7 -15.8°
Sets 02:37:40 0° 107° (ESE) 2,878 6.8 -15.4°
